|
|
Comet P/2008 Y12 (SOHO)
(Preview)
Comet P/2008 Y12 (SOHO) is at Opposition (3.691 AU) in the constellation Scorpius on the 28th June 2015 EphemerisDate UT R.A. (J2000) Decl. Delta r El. Ph. Mag
2015 06 27 000000 17 52 11.2 -43 18 47 3.693 4.657 159.2 4.5
2015 06 28 000000 17 50 52.8 -43 17 11 3.700 4.662 158.8 4.5
2015 06 29 000000 17 49 34...
|
Blobrana
|
0
|
|
|
|
|
Comet C/2015 H1 (Bressi)
(Preview)
Comet C/2015 H1 (Bressi) makes its closest approach to the Earth (1.429 AU) on the 13th June 2015. EphemerisDate UT R.A. (J2000) Decl. Delta r El. Ph. Mag
2015 06 12 000000 19 00 21.5 +31 10 51 1.422 2.126 120.5 24.3 17.5
2015 06 13 000000 18 54 34.9 +31 33 11 1.421 2.130 121.1 24.1 17.5
2015 06 14 000000 1...
|
Blobrana
|
1
|
|
|
|
|
Comet C/2014 W11 (PANSTARRS)
(Preview)
Comet C/2014 W11 (PANSTARRS) is at Opposition (2.587 AU) on the 4th February 2015 EphemerisDate UT R.A. (J2000) Decl. Delta r El. Ph. Mag
2015 02 03 000000 09 05 15.0 +10 35 25 2.589 3.571 173.8 1.7 17.6
2015 02 04 000000 09 04 39.0 +10 34 37 2.587 3.569 174.1 1.6 17.6
2015 02 05 000000 09 04 02.9 +10 33 52 2...
|
Blobrana
|
2
|
|
|
|
|
Comet 146P/Shoemaker-LINEAR
(Preview)
Comet 146P/Shoemaker-LINEAR is at Opposition (2.842 AU) in the constellation Scorpius on the 24th May 2015 EphemerisDate TT R. A. (2000) Decl. Delta r Elong. Phase Mag
2015 05 23 15 59 18.7 -25 52 57 2.8479 3.8568 174.5 1.4 23.1
2015 05 24 15 58 19.6 -25 53 42 2.8417 3.8510 174.7 1.4 23.1
2015 05 25 15 57...
|
Blobrana
|
1
|
|
|
|
|
Comet C/2015 K2 (PANSTARRS)
(Preview)
Comet C/2015 K2 (PANSTARRS) is at Perihelion (1.457 AU) in the constellation Bootes on the 8th June 2015 EphemerisDate UT R.A. (J2000) Decl. Delta r El. Ph. Mag
2015 06 07 000000 13 44 24.4 +06 51 37 0.622 1.458 124.2 35.2 20.6
2015 06 08 000000 13 46 52.1 +07 26 34 0.627 1.458 123.5 35.5 20.6
2015 06 09 0...
|
Blobrana
|
0
|
|
|
|
|
Comet P/2015 F1 (PANSTARRS)
(Preview)
Orbital elements:
P/2015 F1 (PANSTARRS)
T 2015 Jan. 24.73302 TT MPCW
q 2.5594876 (2000.0) P Q
n 0.10404404 Peri. 173.11944 -0.83024079 +0.55649784
a 4.4770427 Node 40.74754 -0.51370164 -0.74176591
e 0.4283084 Incl. 2.79130 -0.21635817 -0.37429066
P 9.47
From 53 observations 2015 Ma...
|
Blobrana
|
2
|
|
|
|
|
Comet C/2014 W9 (PANSTARRS)
(Preview)
Comet C/2014 W9 (PANSTARRS) is at Perihelion (1.587 AU) on the 15th February 2015. EphemerisDate UT R.A. (J2000) Decl. Delta r El. Ph. Mag
2015 02 14 000000 14 58 45.8 -13 17 12 1.104 1.588 98.6 37.9 18.2
2015 02 15 000000 15 01 02.2 -13 36 39 1.098 1.587 99.0 37.9 18.2
2015 02 16 000000 15 03 17.6 -13 56 03 1...
|
Blobrana
|
3
|
|
|
|
|
Comet C/2014 OE4 (PANSTARRS)
(Preview)
Comet C/2014 OE4 (PANSTARRS) is at Opposition (6.391 AU) in the constellation Ophiuchus on the 24th May 2015 EphemerisDate TT R. A. (2000) Decl. Delta r Elong. Phase Mag
2015 05 23 16 24 52.2 +01 54 37 6.3948 7.3351 156.6 3.1
2015 05 24 16 24 22.4 +02 00 41 6.3910 7.3316 156.7 3.1
2015 05 25 16 23 52.5 +02 0...
|
Blobrana
|
0
|
|
|
|
|
Comet C/2015 G2 (MASTER)
(Preview)
ATel 7374: MASTER: 2 dwarf novae and bright comet discovery in Gagarin's dayOrbital elements:
C/2015 G2 (MASTER)
T 2015 May 23.80224 TT MPCW
q 0.7797702 (2000.0) P Q
Peri. 257.47788 -0.69948087 -0.50665954
Node 110.05661 -0.23771951 +0.83004395
e 1.0 Incl. 147.55120 -0.67395545 +0.233...
|
Blobrana
|
4
|
|
|
|
|
Comet C/2015 H2 (PANSTARRS)
(Preview)
Orbital elements:
C/2015 H2 (PANSTARRS)
T 2016 Sept. 6.95438 TT MPCW
q 4.9727346 (2000.0) P Q
Peri. 287.58100 +0.16484180 +0.98197461
Node 350.36656 -0.55546064 +0.01494160
e 1.0 Incl. 33.54894 -0.81504028 +0.18842135
From 30 observations 2015 Apr. 20-30. MPEC 2015 - J04
|
Blobrana
|
0
|
|
|
|
|
Comet P/2015 C1 (TOTAS-Gibbs)
(Preview)
Comet P/2015 C1 (TOTAS-Gibbs) is at Opposition (1.962 AU) in the constellation Leo on the 20th February 2015. EphemerisDate UT R.A. (J2000) Decl. Delta r El. Ph. Mag
2015 02 19 000000 10 19 40.0 +17 43 35 1.960 2.944 173.2 2.3 18.7
2015 02 20 000000 10 18 56.2 +17 42 28 1.959 2.943 173.2 2.3 18.6
2015 02 2...
|
Blobrana
|
2
|
|
|
|
|
Comet 14P/Wolf
(Preview)
Comet 14P/Wolf is at Opposition (4.097 AU) in the constellation Virgo on the 30th April 2015 EphemerisDate TT R. A. (2000) Decl. Delta r Elong. Phase Mag
2015 04 29 14 45 09.2 -04 04 39 4.0992 5.0898 168.5 2.3
2015 04 30 14 44 36.4 -03 59 17 4.0966 5.0877 168.6 2.2
2015 05 01 14 44 03.6 -03 53 58 4.0944 5.08...
|
Blobrana
|
0
|
|
|
|
|
Comet C/2015 F3 (SWAN)
(Preview)
Comet C/2015 F3 (SWAN) makes its closest approach to the Earth (1.054 AU) on the 29th April 2015 EphemerisDate TT R. A. (2000) Decl. Delta r Elong. Phase Mag
2015 04 28 03 44 01.9 +86 31 10 1.0542 1.2242 72.8 51.8 15.5
2015 04 29 05 30 48.0 +86 58 18 1.0538 1.2366 73.7 51.4 15.5
2015 04 30 07 23 07.7 +86 40 01...
|
Blobrana
|
0
|
|
|
|
|
Comet Schweizer (C/1853 G1)
(Preview)
Comet Schweizer (C/1853 G1) made a close approach to the Earth (0.0839 AU) on the 29th April 1853 Source
|
Blobrana
|
0
|
|
|
|
|
Comet 53P/Van Biesbroeck
(Preview)
Comet 53P/Van Biesbroeck is at Opposition (2.812 AU) in the constellation Virgo on the 2nd April 2015. Ephemeris Date TT R. A. (2000) Decl. Delta r Elong. Phase Mag
2015 04 01 12 53 32.6 +00 52 16 2.8176 3.8123 173.8 1.6 16.9
2015 04 02 12 52 56.3 +00 57 20 2.8123 3.8074 173.9 1.6 16.9
2015 04 03 12 52 19.8...
|
Blobrana
|
1
|
|
|